| time (UTC) | temp F | wind direction | speed knots | gust knots | rain 1hr in | rain 24hr in | rain mn in | humidity % | barometer mb |
| 20260906225601 | 98 | 15 | 0.0 | 0.9 | 0.00 | 0.00 | 0.00 | 41 | 1012.4 |
| 20260906225421 | 98 | 259 | 0.0 | 0.9 | 0.00 | 0.00 | 0.00 | 42 | 1012.1 |
| 20260906224917 | 98 | 49 | 0.0 | 0.9 | 0.00 | 0.00 | 0.00 | 42 | 1012.2 |
| 20260906224413 | 98 | 20 | 0.0 | 0.9 | 0.00 | 0.00 | 0.00 | 42 | 1012.1 |
| 20260906223909 | 98 | 291 | 0.9 | 1.7 | 0.00 | 0.00 | 0.00 | 42 | 1012.3 |
| 20260906223405 | 98 | 10 | 0.9 | 0.9 | 0.00 | 0.00 | 0.00 | 41 | 1012.2 |
| 20260906223224 | 98 | 352 | 0.0 | 0.9 | 0.00 | 0.00 | 0.00 | 41 | 1012.6 |
| 20260906222902 | 98 | 358 | 0.0 | 0.0 | 0.00 | 0.00 | 0.00 | 41 | 1012.3 |
| 20260906222402 | 98 | 335 | 0.0 | 0.9 | 0.00 | 0.00 | 0.00 | 42 | 1012.3 |
| 20260906221933 | 98 | 349 | 0.9 | 1.7 | 0.00 | 0.00 | 0.00 | 42 | 1012.7 |
| 20260906221859 | 98 | 27 | 0.9 | 1.7 | 0.00 | 0.00 | 0.00 | 42 | 1012.2 |
| 20260906221354 | 98 | 32 | 0.9 | 1.7 | 0.00 | 0.00 | 0.00 | 41 | 1012.4 |
| 20260906220849 | 98 | 32 | 0.0 | 0.0 | 0.00 | 0.00 | 0.00 | 42 | 1012.4 |
| 20260906220746 | 98 | 0.0 | 0.0 | 0.00 | 0.00 | 0.00 | 43 | 1012.6 | |
| 20260906220344 | 97 | 37 | 0.0 | 0.9 | 0.00 | 0.00 | 0.00 | 42 | 1012.3 |
| 20260906215843 | 98 | 47 | 1.7 | 2.6 | 0.00 | 0.00 | 0.00 | 42 | 1012.2 |
| 20260906215722 | 98 | 18 | 1.7 | 5.2 | 0.00 | 0.00 | 0.00 | 43 | 1012.5 |
| 20260906215339 | 98 | 18 | 0.9 | 1.7 | 0.00 | 0.00 | 0.00 | 43 | 1012.1 |
| 20260906214836 | 98 | 29 | 0.9 | 0.9 | 0.00 | 0.00 | 0.00 | 43 | 1012.2 |
| 20260906214410 | 98 | 46 | 1.7 | 3.5 | 0.00 | 0.00 | 0.00 | 42 | 1012.6 |
| 20260906214331 | 98 | 328 | 1.7 | 1.7 | 0.00 | 0.00 | 0.00 | 42 | 1012.2 |
| 20260906213830 | 98 | 42 | 0.9 | 0.9 | 0.00 | 0.00 | 0.00 | 42 | 1012.3 |
| 20260906213325 | 98 | 24 | 0.0 | 0.9 | 0.00 | 0.00 | 0.00 | 42 | 1012.3 |
| 20260906213221 | 98 | 31 | 0.9 | 3.5 | 0.00 | 0.00 | 0.00 | 42 | 1012.8 |
| 20260906212822 | 98 | 127 | 0.0 | 0.9 | 0.00 | 0.00 | 0.00 | 42 | 1012.5 |
| 20260906212318 | 97 | 46 | 2.6 | 5.2 | 0.00 | 0.00 | 0.00 | 43 | 1013.0 |
| 20260906211928 | 98 | 41 | 0.9 | 2.6 | 0.00 | 0.00 | 0.00 | 43 | 1013.0 |
| 20260906211817 | 98 | 45 | 1.7 | 2.6 | 0.00 | 0.00 | 0.00 | 42 | 1012.8 |
| 20260906211313 | 97 | 5 | 0.9 | 1.7 | 0.00 | 0.00 | 0.00 | 42 | 1012.8 |
| 20260906210812 | 98 | 354 | 0.9 | 1.7 | 0.00 | 0.00 | 0.00 | 43 | 1013.0 |
| 20260906210741 | 98 | 10 | 0.0 | 1.7 | 0.00 | 0.00 | 0.00 | 42 | 1013.3 |
| 20260906210307 | 98 | 34 | 0.9 | 0.9 | 0.00 | 0.00 | 0.00 | 44 | 1013.1 |
| 20260906205802 | 98 | 17 | 0.0 | 0.0 | 0.00 | 0.00 | 0.00 | 42 | 1013.0 |
| 20260906205259 | 98 | 220 | 0.9 | 1.7 | 0.00 | 0.00 | 0.00 | 42 | 1013.2 |
| 20260906204754 | 98 | 324 | 0.9 | 2.6 | 0.00 | 0.00 | 0.00 | 43 | 1013.4 |
| 20260906204401 | 98 | 68 | 0.9 | 1.7 | 0.00 | 0.00 | 0.00 | 42 | 1013.4 |
| 20260906204253 | 98 | 78 | 1.7 | 1.7 | 0.00 | 0.00 | 0.00 | 43 | 1013.1 |
| 20260906203752 | 98 | 4 | 0.9 | 1.7 | 0.00 | 0.00 | 0.00 | 42 | 1013.4 |
| 20260906203249 | 98 | 151 | 0.9 | 2.6 | 0.00 | 0.00 | 0.00 | 43 | 1013.5 |
| 20260906203211 | 98 | 18 | 0.0 | 0.9 | 0.00 | 0.00 | 0.00 | 44 | 1013.7 |
| 20260906202745 | 98 | 17 | 1.7 | 2.6 | 0.00 | 0.00 | 0.00 | 43 | 1013.7 |
| 20260906202244 | 98 | 2 | 0.0 | 0.9 | 0.00 | 0.00 | 0.00 | 43 | 1013.8 |
| 20260906202023 | 98 | 26 | 0.0 | 0.9 | 0.00 | 0.00 | 0.00 | 42 | 1013.9 |
| 20260906201739 | 98 | 10 | 0.0 | 0.0 | 0.00 | 0.00 | 0.00 | 42 | 1013.5 |
| 20260906201238 | 98 | 68 | 1.7 | 2.6 | 0.00 | 0.00 | 0.00 | 42 | 1013.6 |
| 20260906200753 | 97 | 360 | 0.9 | 1.7 | 0.00 | 0.00 | 0.00 | 44 | 1013.8 |
| 20260906200734 | 98 | 339 | 1.7 | 1.7 | 0.00 | 0.00 | 0.00 | 44 | 1013.7 |
| 20260906200230 | 96 | 42 | 0.9 | 0.9 | 0.00 | 0.00 | 0.00 | 45 | 1013.8 |
| 20260906195733 | 97 | 65 | 1.7 | 3.5 | 0.00 | 0.00 | 0.00 | 44 | 1014.1 |
| 20260906195726 | 96 | 25 | 0.9 | 1.7 | 0.00 | 0.00 | 0.00 | 45 | 1013.8 |
| 20260906195222 | 98 | 29 | 2.6 | 3.5 | 0.00 | 0.00 | 0.00 | 44 | 1013.6 |
| 20260906194717 | 98 | 36 | 0.0 | 0.0 | 0.00 | 0.00 | 0.00 | 45 | 1014.0 |
| 20260906194359 | 97 | 55 | 0.9 | 3.5 | 0.00 | 0.00 | 0.00 | 46 | 1014.3 |
| 20260906194213 | 97 | 66 | 2.6 | 3.5 | 0.00 | 0.00 | 0.00 | 45 | 1014.0 |
| 20260906193708 | 98 | 42 | 0.9 | 1.7 | 0.00 | 0.00 | 0.00 | 45 | 1013.8 |
| 20260906193211 | 97 | 18 | 0.9 | 1.7 | 0.00 | 0.00 | 0.00 | 46 | 1014.3 |
| 20260906193202 | 97 | 301 | 2.6 | 5.2 | 0.00 | 0.00 | 0.00 | 45 | 1014.1 |
| 20260906192658 | 98 | 36 | 4.3 | 6.1 | 0.00 | 0.00 | 0.00 | 46 | 1014.1 |
| 20260906192158 | 98 | 29 | 2.6 | 6.1 | 0.00 | 0.00 | 0.00 | 45 | 1014.0 |
| 20260906192024 | 97 | 36 | 0.9 | 1.7 | 0.00 | 0.00 | 0.00 | 46 | 1014.4 |
| 20260906191653 | 97 | 1 | 0.9 | 0.9 | 0.00 | 0.00 | 0.00 | 46 | 1014.1 |
| 20260906191152 | 97 | 62 | 1.7 | 1.7 | 0.00 | 0.00 | 0.00 | 45 | 1014.3 |
| 20260906190752 | 97 | 5 | 1.7 | 3.5 | 0.00 | 0.00 | 0.00 | 47 | 1014.6 |
| 20260906190646 | 97 | 300 | 0.9 | 0.9 | 0.00 | 0.00 | 0.00 | 47 | 1014.3 |
| 20260906190141 | 98 | 1 | 0.0 | 1.7 | 0.00 | 0.00 | 0.00 | 47 | 1014.5 |
| 20260906185648 | 97 | 330 | 0.9 | 1.7 | 0.00 | 0.00 | 0.00 | 47 | 1014.7 |
| 20260906185640 | 98 | 33 | 0.9 | 1.7 | 0.00 | 0.00 | 0.00 | 45 | 1014.4 |
| 20260906185139 | 97 | 67 | 1.7 | 2.6 | 0.00 | 0.00 | 0.00 | 48 | 1014.5 |
| 20260906184634 | 97 | 96 | 1.7 | 5.2 | 0.00 | 0.00 | 0.00 | 47 | 1014.8 |
| 20260906184358 | 96 | 14 | 0.9 | 2.6 | 0.00 | 0.00 | 0.00 | 48 | 1014.8 |
| 20260906184130 | 96 | 42 | 2.6 | 2.6 | 0.00 | 0.00 | 0.00 | 47 | 1014.4 |
| 20260906183626 | 96 | 4 | 3.5 | 3.5 | 0.00 | 0.00 | 0.00 | 48 | 1014.5 |
| 20260906183211 | 98 | 3 | 0.0 | 0.9 | 0.00 | 0.00 | 0.00 | 47 | 1015.0 |
| 20260906183121 | 98 | 54 | 0.9 | 0.9 | 0.00 | 0.00 | 0.00 | 47 | 1014.6 |
| 20260906182616 | 98 | 358 | 0.0 | 0.0 | 0.00 | 0.00 | 0.00 | 47 | 1014.8 |
| 20260906182112 | 99 | 303 | 0.0 | 0.9 | 0.00 | 0.00 | 0.00 | 46 | 1014.7 |
| 20260906182024 | 98 | 207 | 0.0 | 1.7 | 0.00 | 0.00 | 0.00 | 47 | 1015.2 |
| 20260906181607 | 97 | 46 | 0.0 | 0.0 | 0.00 | 0.00 | 0.00 | 48 | 1014.8 |
| 20260906181103 | 97 | 353 | 0.9 | 0.9 | 0.00 | 0.00 | 0.00 | 48 | 1014.9 |
| 20260906180752 | 97 | 18 | 1.7 | 3.5 | 0.00 | 0.00 | 0.00 | 50 | 1015.2 |
| 20260906180603 | 96 | 26 | 1.7 | 2.6 | 0.00 | 0.00 | 0.00 | 50 | 1014.9 |
| 20260906175601 | 99 | 251 | 1.7 | 3.5 | 0.00 | 0.00 | 0.00 | 47 | 1015.2 |
| 20260906175545 | 99 | 98 | 1.7 | 2.6 | 0.00 | 0.00 | 0.00 | 46 | 1015.5 |
| 20260906175056 | 98 | 270 | 0.9 | 0.9 | 0.00 | 0.00 | 0.00 | 50 | 1015.4 |
| 20260906174554 | 97 | 66 | 0.0 | 0.0 | 0.00 | 0.00 | 0.00 | 49 | 1015.2 |
| 20260906174400 | 97 | 0.0 | 0.0 | 0.00 | 0.00 | 0.00 | 50 | 1015.7 | |
| 20260906174049 | 97 | 332 | 0.9 | 1.7 | 0.00 | 0.00 | 0.00 | 49 | 1015.2 |
| 20260906173544 | 96 | 347 | 0.0 | 0.0 | 0.00 | 0.00 | 0.00 | 51 | 1015.3 |
| 20260906173209 | 96 | 22 | 0.0 | 0.9 | 0.00 | 0.00 | 0.00 | 50 | 1015.7 |
| 20260906173040 | 96 | 8 | 0.0 | 0.9 | 0.00 | 0.00 | 0.00 | 50 | 1015.3 |
| 20260906172534 | 98 | 358 | 0.9 | 0.9 | 0.00 | 0.00 | 0.00 | 48 | 1015.5 |
| 20260906172030 | 97 | 33 | 0.0 | 0.9 | 0.00 | 0.00 | 0.00 | 48 | 1015.7 |
| 20260906172023 | 97 | 327 | 0.9 | 1.7 | 0.00 | 0.00 | 0.00 | 49 | 1016.1 |
| 20260906171524 | 97 | 6 | 0.9 | 1.7 | 0.00 | 0.00 | 0.00 | 50 | 1015.6 |
| 20260906171020 | 98 | 47 | 0.0 | 0.9 | 0.00 | 0.00 | 0.00 | 49 | 1015.8 |
| 20260906170730 | 97 | 358 | 0.9 | 1.7 | 0.00 | 0.00 | 0.00 | 50 | 1016.1 |
| 20260906170516 | 97 | 331 | 0.0 | 0.9 | 0.00 | 0.00 | 0.00 | 51 | 1015.7 |
| 20260906170014 | 97 | 34 | 0.0 | 0.9 | 0.00 | 0.00 | 0.00 | 50 | 1015.9 |
| 20260906165625 | 94 | 38 | 0.0 | 0.9 | 0.00 | 0.00 | 0.00 | 52 | 1016.3 |
| 20260906165512 | 95 | 33 | 0.0 | 0.0 | 0.00 | 0.00 | 0.00 | 51 | 1016.0 |
| 20260906165007 | 95 | 228 | 0.9 | 0.9 | 0.00 | 0.00 | 0.00 | 52 | 1016.0 |
| 20260906164506 | 94 | 355 | 0.0 | 0.0 | 0.00 | 0.00 | 0.00 | 54 | 1015.8 |
| 20260906164354 | 93 | 49 | 0.0 | 0.9 | 0.00 | 0.00 | 0.00 | 52 | 1016.2 |
| 20260906164002 | 93 | 0 | 0.0 | 0.9 | 0.00 | 0.00 | 0.00 | 54 | 1015.9 |
| 20260906163457 | 94 | 36 | 0.0 | 0.9 | 0.00 | 0.00 | 0.00 | 51 | 1015.9 |
| 20260906163205 | 96 | 14 | 0.9 | 1.7 | 0.00 | 0.00 | 0.00 | 51 | 1016.3 |
| 20260906162956 | 96 | 37 | 0.0 | 0.9 | 0.00 | 0.00 | 0.00 | 52 | 1015.9 |
| 20260906162454 | 95 | 140 | 0.9 | 2.6 | 0.00 | 0.00 | 0.00 | 50 | 1015.8 |
| 20260906162019 | 93 | 45 | 1.7 | 2.6 | 0.00 | 0.00 | 0.00 | 55 | 1016.2 |
| 20260906161949 | 93 | 349 | 0.9 | 1.7 | 0.00 | 0.00 | 0.00 | 55 | 1015.9 |
| 20260906161449 | 93 | 32 | 0.9 | 0.9 | 0.00 | 0.00 | 0.00 | 54 | 1015.8 |
| 20260906160949 | 93 | 23 | 2.6 | 2.6 | 0.00 | 0.00 | 0.00 | 56 | 1015.7 |
| 20260906160722 | 94 | 34 | 2.6 | 6.1 | 0.00 | 0.00 | 0.00 | 55 | 1016.1 |
| 20260906160442 | 94 | 355 | 0.0 | 0.0 | 0.00 | 0.00 | 0.00 | 54 | 1015.8 |
| 20260906155941 | 95 | 33 | 0.0 | 0.9 | 0.00 | 0.00 | 0.00 | 53 | 1015.8 |
| 20260906155536 | 92 | 12 | 0.9 | 1.7 | 0.00 | 0.00 | 0.00 | 58 | 1015.9 |
| 20260906155439 | 92 | 54 | 0.9 | 1.7 | 0.00 | 0.00 | 0.00 | 58 | 1015.7 |
| 20260906154936 | 92 | 67 | 2.6 | 2.6 | 0.00 | 0.00 | 0.00 | 56 | 1015.6 |
| 20260906154450 | 92 | 46 | 1.7 | 5.2 | 0.00 | 0.00 | 0.00 | 60 | 1016.0 |
| 20260906154431 | 92 | 350 | 1.7 | 2.6 | 0.00 | 0.00 | 0.00 | 59 | 1015.6 |
| 20260906153929 | 94 | 32 | 0.9 | 0.9 | 0.00 | 0.00 | 0.00 | 56 | 1015.8 |
| 20260906153428 | 94 | 1 | 0.0 | 0.0 | 0.00 | 0.00 | 0.00 | 58 | 1015.7 |
| 20260906153200 | 93 | 1 | 0.9 | 1.7 | 0.00 | 0.00 | 0.00 | 61 | 1016.0 |
| 20260906152923 | 93 | 350 | 0.0 | 0.0 | 0.00 | 0.00 | 0.00 | 62 | 1015.7 |
| 20260906152418 | 91 | 346 | 0.0 | 0.0 | 0.00 | 0.00 | 0.00 | 64 | 1015.6 |
| 20260906152015 | 91 | 20 | 0.0 | 0.9 | 0.00 | 0.00 | 0.00 | 64 | 1015.8 |
| 20260906151917 | 91 | 5 | 0.9 | 0.9 | 0.00 | 0.00 | 0.00 | 65 | 1015.7 |
| 20260906151413 | 91 | 43 | 0.0 | 0.9 | 0.00 | 0.00 | 0.00 | 64 | 1015.6 |
| 20260906150909 | 92 | 25 | 0.9 | 0.9 | 0.00 | 0.00 | 0.00 | 65 | 1015.4 |
| 20260906150741 | 92 | 14 | 0.0 | 0.9 | 0.00 | 0.00 | 0.00 | 64 | 1015.8 |
| 20260906150404 | 93 | 73 | 0.9 | 1.7 | 0.00 | 0.00 | 0.00 | 63 | 1015.4 |
| 20260906145903 | 90 | 36 | 0.0 | 0.9 | 0.00 | 0.00 | 0.00 | 66 | 1015.4 |
| 20260906145538 | 91 | 21 | 0.0 | 0.9 | 0.00 | 0.00 | 0.00 | 67 | 1015.7 |
| 20260906145356 | 91 | 34 | 0.0 | 0.9 | 0.00 | 0.00 | 0.00 | 67 | 1015.4 |
| 20260906144851 | 91 | 42 | 0.0 | 0.0 | 0.00 | 0.00 | 0.00 | 67 | 1015.4 |
| 20260906144451 | 92 | 0.0 | 0.0 | 0.00 | 0.00 | 0.00 | 65 | 1015.7 | |
| 20260906144346 | 92 | 5 | 0.0 | 0.0 | 0.00 | 0.00 | 0.00 | 63 | 1015.4 |
| 20260906143840 | 89 | 8 | 0.0 | 0.0 | 0.00 | 0.00 | 0.00 | 67 | 1015.4 |
| 20260906143336 | 91 | 4 | 0.0 | 0.0 | 0.00 | 0.00 | 0.00 | 68 | 1015.6 |
| 20260906143200 | 89 | 0.0 | 0.0 | 0.00 | 0.00 | 0.00 | 68 | 1015.8 | |
| 20260906142832 | 88 | 30 | 0.0 | 0.0 | 0.00 | 0.00 | 0.00 | 70 | 1015.6 |
| 20260906142326 | 89 | 61 | 0.0 | 0.0 | 0.00 | 0.00 | 0.00 | 70 | 1015.7 |
| 20260906142053 | 89 | 45 | 0.9 | 1.7 | 0.00 | 0.00 | 0.00 | 70 | 1015.9 |
| 20260906141821 | 88 | 12 | 0.0 | 0.0 | 0.00 | 0.00 | 0.00 | 70 | 1015.5 |
| 20260906141316 | 87 | 337 | 0.0 | 0.0 | 0.00 | 0.00 | 0.00 | 71 | 1015.7 |
| 20260906140814 | 89 | 20 | 0.0 | 0.0 | 0.00 | 0.00 | 0.00 | 70 | 1015.6 |
| 20260906140721 | 88 | 18 | 0.0 | 0.9 | 0.00 | 0.00 | 0.00 | 70 | 1015.9 |
| 20260906140309 | 87 | 3 | 0.0 | 0.0 | 0.00 | 0.00 | 0.00 | 71 | 1015.6 |
| 20260906135807 | 87 | 20 | 0.0 | 0.0 | 0.00 | 0.00 | 0.00 | 73 | 1015.4 |
| 20260906135534 | 86 | 14 | 0.0 | 0.9 | 0.00 | 0.00 | 0.00 | 75 | 1015.7 |
| 20260906135305 | 86 | 16 | 0.0 | 0.0 | 0.00 | 0.00 | 0.00 | 75 | 1015.5 |
| 20260906134757 | 86 | 355 | 0.0 | 0.0 | 0.00 | 0.00 | 0.00 | 74 | 1015.3 |
| 20260906134450 | 86 | 54 | 0.0 | 0.9 | 0.00 | 0.00 | 0.00 | 76 | 1015.6 |
| 20260906134252 | 86 | 8 | 0.0 | 0.0 | 0.00 | 0.00 | 0.00 | 76 | 1015.3 |
| 20260906133748 | 86 | 4 | 0.9 | 0.9 | 0.00 | 0.00 | 0.00 | 76 | 1015.4 |
| 20260906133244 | 85 | 10 | 0.0 | 0.0 | 0.00 | 0.00 | 0.00 | 77 | 1015.2 |
| 20260906133158 | 84 | 35 | 0.0 | 1.7 | 0.00 | 0.00 | 0.00 | 78 | 1015.7 |
| 20260906132738 | 85 | 19 | 0.0 | 0.0 | 0.00 | 0.00 | 0.00 | 77 | 1015.3 |
| 20260906132233 | 87 | 4 | 0.0 | 0.0 | 0.00 | 0.00 | 0.00 | 74 | 1015.4 |
| 20260906132011 | 86 | 0.0 | 0.0 | 0.00 | 0.00 | 0.00 | 75 | 1015.9 | |
| 20260906131729 | 87 | 23 | 0.0 | 0.0 | 0.00 | 0.00 | 0.00 | 76 | 1015.7 |
| 20260906131224 | 87 | 12 | 0.0 | 0.0 | 0.00 | 0.00 | 0.00 | 72 | 1015.4 |
| 20260906130721 | 86 | 0.0 | 0.0 | 0.00 | 0.00 | 0.00 | 76 | 1015.7 | |
| 20260906130214 | 85 | 1 | 0.0 | 0.0 | 0.00 | 0.00 | 0.00 | 77 | 1015.4 |
| 20260906125713 | 84 | 1 | 0.0 | 0.0 | 0.00 | 0.00 | 0.00 | 79 | 1015.1 |
| 20260906125554 | 83 | 0.0 | 0.0 | 0.00 | 0.00 | 0.00 | 80 | 1015.4 | |
| 20260906125211 | 83 | 4 | 0.0 | 0.0 | 0.00 | 0.00 | 0.00 | 80 | 1015.1 |
| 20260906124707 | 81 | 3 | 0.0 | 0.0 | 0.00 | 0.00 | 0.00 | 84 | 1015.2 |
| 20260906124527 | 79 | 0.0 | 0.0 | 0.00 | 0.00 | 0.00 | 88 | 1015.5 | |
| 20260906124202 | 79 | 1 | 0.0 | 0.0 | 0.00 | 0.00 | 0.00 | 89 | 1015.1 |
| 20260906123701 | 78 | 359 | 0.0 | 0.0 | 0.00 | 0.00 | 0.00 | 89 | 1015.3 |
| 20260906123156 | 78 | 1 | 0.0 | 0.0 | 0.00 | 0.00 | 0.00 | 89 | 1015.1 |
| 20260906123153 | 78 | 0.0 | 0.0 | 0.00 | 0.00 | 0.00 | 89 | 1015.4 | |
| 20260906122655 | 78 | 4 | 0.0 | 0.0 | 0.00 | 0.00 | 0.00 | 89 | 1015.1 |
| 20260906122151 | 78 | 358 | 0.0 | 0.0 | 0.00 | 0.00 | 0.00 | 89 | 1015.0 |
| 20260906122028 | 78 | 0.0 | 0.0 | 0.00 | 0.00 | 0.00 | 90 | 1015.4 | |
| 20260906121647 | 78 | 359 | 0.0 | 0.0 | 0.00 | 0.00 | 0.00 | 89 | 1015.1 |
| 20260906121143 | 78 | 4 | 0.0 | 0.0 | 0.00 | 0.00 | 0.00 | 89 | 1014.8 |
| 20260906120819 | 78 | 0.0 | 0.0 | 0.00 | 0.00 | 0.00 | 89 | 1015.1 | |
| 20260906120639 | 78 | 1 | 0.0 | 0.0 | 0.00 | 0.00 | 0.00 | 89 | 1014.9 |
| 20260906120136 | 78 | 4 | 0.0 | 0.0 | 0.00 | 0.00 | 0.00 | 89 | 1014.7 |
| 20260906115631 | 78 | 1 | 0.0 | 0.0 | 0.00 | 0.00 | 0.00 | 89 | 1014.8 |
| 20260906115528 | 78 | 0.0 | 0.0 | 0.00 | 0.00 | 0.00 | 89 | 1015.0 | |
| 20260906115126 | 78 | 357 | 0.0 | 0.0 | 0.00 | 0.00 | 0.00 | 90 | 1014.6 |
| 20260906114619 | 78 | 1 | 0.0 | 0.0 | 0.00 | 0.00 | 0.00 | 88 | 1014.5 |
| 20260906114445 | 78 | 0.0 | 0.0 | 0.00 | 0.00 | 0.00 | 88 | 1014.9 | |
| 20260906114115 | 78 | 358 | 0.0 | 0.0 | 0.00 | 0.00 | 0.00 | 88 | 1014.6 |
| 20260906113615 | 78 | 355 | 0.0 | 0.0 | 0.00 | 0.00 | 0.00 | 88 | 1014.8 |
| 20260906113155 | 79 | 0.0 | 0.0 | 0.00 | 0.00 | 0.00 | 88 | 1014.8 | |
| 20260906113115 | 79 | 7 | 0.0 | 0.0 | 0.00 | 0.00 | 0.00 | 88 | 1014.6 |
| 20260906112614 | 79 | 0 | 0.0 | 0.0 | 0.00 | 0.00 | 0.00 | 87 | 1014.4 |
| 20260906112111 | 79 | 0 | 0.0 | 0.0 | 0.00 | 0.00 | 0.00 | 87 | 1014.4 |
| 20260906112004 | 79 | 0.0 | 0.0 | 0.00 | 0.00 | 0.00 | 87 | 1014.8 | |
| 20260906111610 | 79 | 4 | 0.0 | 0.0 | 0.00 | 0.00 | 0.00 | 87 | 1014.4 |
| 20260906111106 | 79 | 3 | 0.0 | 0.0 | 0.00 | 0.00 | 0.00 | 87 | 1014.5 |
| 20260906110817 | 79 | 0.0 | 0.0 | 0.00 | 0.00 | 0.00 | 87 | 1014.6 | |
| 20260906110605 | 79 | 5 | 0.0 | 0.0 | 0.00 | 0.00 | 0.00 | 87 | 1014.3 |
| 20260906110100 | 78 | 2 | 0.0 | 0.0 | 0.00 | 0.00 | 0.00 | 88 | 1014.3 |
| 20260906105555 | 79 | 9 | 0.0 | 0.0 | 0.00 | 0.00 | 0.00 | 88 | 1014.3 |
| 20260906105547 | 79 | 0.0 | 0.0 | 0.00 | 0.00 | 0.00 | 88 | 1014.5 | |
| 20260906105051 | 79 | 5 | 0.0 | 0.0 | 0.00 | 0.00 | 0.00 | 87 | 1014.2 |
| 20260906104550 | 79 | 357 | 0.0 | 0.0 | 0.00 | 0.00 | 0.00 | 87 | 1014.3 |
| 20260906104443 | 79 | 0.0 | 0.0 | 0.00 | 0.00 | 0.00 | 87 | 1014.4 | |
| 20260906104044 | 79 | 349 | 0.0 | 0.0 | 0.00 | 0.00 | 0.00 | 87 | 1014.1 |
| 20260906103543 | 79 | 0 | 0.0 | 0.0 | 0.00 | 0.00 | 0.00 | 86 | 1014.2 |
| 20260906103151 | 79 | 0.0 | 0.0 | 0.00 | 0.00 | 0.00 | 86 | 1014.4 | |
| 20260906103038 | 79 | 4 | 0.0 | 0.0 | 0.00 | 0.00 | 0.00 | 86 | 1014.1 |
| 20260906102537 | 79 | 0 | 0.0 | 0.0 | 0.00 | 0.00 | 0.00 | 87 | 1013.8 |
| 20260906102032 | 79 | 9 | 0.0 | 0.0 | 0.00 | 0.00 | 0.00 | 86 | 1014.0 |
| 20260906102004 | 79 | 0.0 | 0.0 | 0.00 | 0.00 | 0.00 | 86 | 1014.3 | |
| 20260906101526 | 79 | 359 | 0.0 | 0.0 | 0.00 | 0.00 | 0.00 | 86 | 1013.8 |
| 20260906101021 | 79 | 0 | 0.0 | 0.0 | 0.00 | 0.00 | 0.00 | 86 | 1014.1 |
| 20260906100815 | 79 | 0.0 | 0.0 | 0.00 | 0.00 | 0.00 | 86 | 1014.3 | |
| 20260906100517 | 79 | 0 | 0.0 | 0.0 | 0.00 | 0.00 | 0.00 | 86 | 1014.0 |
| 20260906100012 | 79 | 0 | 0.0 | 0.0 | 0.00 | 0.00 | 0.00 | 86 | 1014.0 |
| 20260906095525 | 79 | 0.0 | 0.0 | 0.00 | 0.00 | 0.00 | 85 | 1014.2 | |
| 20260906095507 | 79 | 1 | 0.0 | 0.0 | 0.00 | 0.00 | 0.00 | 85 | 1014.0 |
| 20260906095003 | 79 | 0 | 0.0 | 0.0 | 0.00 | 0.00 | 0.00 | 85 | 1013.9 |
| 20260906094502 | 79 | 1 | 0.0 | 0.0 | 0.00 | 0.00 | 0.00 | 85 | 1013.9 |
| 20260906094441 | 79 | 0.0 | 0.0 | 0.00 | 0.00 | 0.00 | 85 | 1014.2 | |
| 20260906093957 | 79 | 349 | 0.0 | 0.0 | 0.00 | 0.00 | 0.00 | 85 | 1013.9 |
| 20260906093453 | 80 | 1 | 0.0 | 0.0 | 0.00 | 0.00 | 0.00 | 85 | 1013.8 |
| 20260906093155 | 80 | 0.0 | 0.0 | 0.00 | 0.00 | 0.00 | 84 | 1013.8 | |
| 20260906092948 | 80 | 3 | 0.0 | 0.0 | 0.00 | 0.00 | 0.00 | 84 | 1013.6 |
| 20260906092448 | 80 | 0 | 0.0 | 0.0 | 0.00 | 0.00 | 0.00 | 84 | 1013.7 |
| 20260906092003 | 80 | 0.0 | 0.0 | 0.00 | 0.00 | 0.00 | 83 | 1013.8 | |
| 20260906091943 | 80 | 1 | 0.0 | 0.0 | 0.00 | 0.00 | 0.00 | 83 | 1013.6 |
| 20260906091439 | 80 | 7 | 0.0 | 0.0 | 0.00 | 0.00 | 0.00 | 83 | 1013.5 |
| 20260906090935 | 80 | 348 | 0.0 | 0.0 | 0.00 | 0.00 | 0.00 | 83 | 1013.6 |
| 20260906090816 | 80 | 0.0 | 0.0 | 0.00 | 0.00 | 0.00 | 83 | 1013.5 | |
| 20260906090430 | 80 | 356 | 0.0 | 0.0 | 0.00 | 0.00 | 0.00 | 83 | 1013.2 |
| 20260906085930 | 80 | 333 | 0.0 | 0.0 | 0.00 | 0.00 | 0.00 | 83 | 1013.4 |
| 20260906085519 | 80 | 0.0 | 0.0 | 0.00 | 0.00 | 0.00 | 83 | 1013.7 | |
| 20260906085429 | 80 | 353 | 0.0 | 0.0 | 0.00 | 0.00 | 0.00 | 83 | 1013.5 |
| 20260906084928 | 80 | 335 | 0.0 | 0.0 | 0.00 | 0.00 | 0.00 | 82 | 1013.3 |
| 20260906084435 | 80 | 0.0 | 0.0 | 0.00 | 0.00 | 0.00 | 82 | 1013.5 | |
| 20260906084423 | 80 | 359 | 0.0 | 0.0 | 0.00 | 0.00 | 0.00 | 82 | 1013.1 |
| 20260906083922 | 80 | 323 | 0.0 | 0.0 | 0.00 | 0.00 | 0.00 | 82 | 1013.3 |
| 20260906083418 | 80 | 313 | 0.0 | 0.0 | 0.00 | 0.00 | 0.00 | 82 | 1013.3 |
| 20260906083249 | 81 | 0.0 | 0.0 | 0.00 | 0.00 | 0.00 | 82 | 1013.5 | |
| 20260906082917 | 81 | 305 | 0.0 | 0.0 | 0.00 | 0.00 | 0.00 | 81 | 1013.3 |
| 20260906082412 | 81 | 352 | 0.0 | 0.0 | 0.00 | 0.00 | 0.00 | 81 | 1013.3 |
| 20260906081956 | 81 | 0.0 | 0.0 | 0.00 | 0.00 | 0.00 | 81 | 1013.5 | |
| 20260906081908 | 81 | 0 | 0.0 | 0.0 | 0.00 | 0.00 | 0.00 | 80 | 1013.4 |
| 20260906081403 | 81 | 10 | 0.0 | 0.0 | 0.00 | 0.00 | 0.00 | 80 | 1013.1 |
| 20260906080900 | 81 | 4 | 0.0 | 0.0 | 0.00 | 0.00 | 0.00 | 80 | 1013.3 |
| 20260906080829 | 81 | 0.0 | 0.0 | 0.00 | 0.00 | 0.00 | 81 | 1013.7 | |
| 20260906080356 | 81 | 14 | 0.0 | 0.0 | 0.00 | 0.00 | 0.00 | 80 | 1013.3 |
| 20260906075855 | 81 | 349 | 0.0 | 0.0 | 0.00 | 0.00 | 0.00 | 80 | 1013.5 |
| 20260906075534 | 81 | 0.0 | 0.0 | 0.00 | 0.00 | 0.00 | 79 | 1013.9 | |
| 20260906075350 | 81 | 353 | 0.0 | 0.0 | 0.00 | 0.00 | 0.00 | 79 | 1013.4 |
| 20260906074846 | 81 | 355 | 0.0 | 0.0 | 0.00 | 0.00 | 0.00 | 79 | 1013.6 |
| 20260906074429 | 81 | 0.0 | 0.0 | 0.00 | 0.00 | 0.00 | 78 | 1013.7 | |
| 20260906074340 | 81 | 3 | 0.0 | 0.0 | 0.00 | 0.00 | 0.00 | 78 | 1013.4 |
| 20260906073839 | 82 | 9 | 0.0 | 0.0 | 0.00 | 0.00 | 0.00 | 78 | 1013.5 |
| 20260906073334 | 82 | 2 | 0.0 | 0.0 | 0.00 | 0.00 | 0.00 | 78 | 1013.5 |
| 20260906073240 | 82 | 0.0 | 0.0 | 0.00 | 0.00 | 0.00 | 79 | 1013.7 | |
| 20260906072831 | 82 | 1 | 0.0 | 0.0 | 0.00 | 0.00 | 0.00 | 78 | 1013.4 |
| 20260906072326 | 82 | 4 | 0.0 | 0.0 | 0.00 | 0.00 | 0.00 | 77 | 1013.3 |
| 20260906071949 | 82 | 0.0 | 0.0 | 0.00 | 0.00 | 0.00 | 77 | 1013.7 | |
| 20260906071822 | 82 | 357 | 0.0 | 0.0 | 0.00 | 0.00 | 0.00 | 77 | 1013.5 |
| 20260906071321 | 82 | 357 | 0.0 | 0.0 | 0.00 | 0.00 | 0.00 | 77 | 1013.6 |
| 20260906070818 | 82 | 359 | 0.0 | 0.0 | 0.00 | 0.00 | 0.00 | 76 | 1013.6 |
| 20260906070803 | 82 | 0.0 | 0.0 | 0.00 | 0.00 | 0.00 | 76 | 1013.9 | |
| 20260906070314 | 82 | 356 | 0.0 | 0.0 | 0.00 | 0.00 | 0.00 | 76 | 1013.6 |
| 20260906065814 | 82 | 0 | 0.0 | 0.0 | 0.00 | 0.00 | 0.00 | 76 | 1013.7 |
| 20260906065533 | 83 | 0.0 | 0.0 | 0.00 | 0.00 | 0.00 | 75 | 1014.1 | |
| 20260906065309 | 83 | 13 | 0.0 | 0.0 | 0.00 | 0.00 | 0.00 | 75 | 1013.8 |
| 20260906064804 | 83 | 354 | 0.0 | 0.0 | 0.00 | 0.00 | 0.00 | 75 | 1013.7 |
| 20260906064425 | 83 | 0.0 | 0.0 | 0.00 | 0.00 | 0.00 | 75 | 1014.0 | |
| 20260906064300 | 83 | 359 | 0.0 | 0.0 | 0.00 | 0.00 | 0.00 | 75 | 1013.6 |
| 20260906063755 | 83 | 344 | 0.0 | 0.0 | 0.00 | 0.00 | 0.00 | 75 | 1013.6 |
| 20260906063256 | 83 | 0.0 | 0.0 | 0.00 | 0.00 | 0.00 | 74 | 1014.0 | |
| 20260906063251 | 83 | 4 | 0.0 | 0.0 | 0.00 | 0.00 | 0.00 | 74 | 1013.9 |
| 20260906062745 | 83 | 299 | 0.0 | 0.9 | 0.00 | 0.00 | 0.00 | 74 | 1013.7 |
| 20260906062244 | 83 | 356 | 0.0 | 0.0 | 0.00 | 0.00 | 0.00 | 73 | 1013.6 |
| 20260906061945 | 83 | 355 | 0.0 | 0.9 | 0.00 | 0.00 | 0.00 | 73 | 1013.9 |
| 20260906061740 | 83 | 2 | 0.0 | 0.0 | 0.00 | 0.00 | 0.00 | 73 | 1013.6 |
| 20260906061237 | 84 | 6 | 0.0 | 0.0 | 0.00 | 0.00 | 0.00 | 73 | 1013.9 |
| 20260906060819 | 84 | 0.0 | 0.0 | 0.00 | 0.00 | 0.00 | 73 | 1014.0 | |
| 20260906060731 | 84 | 357 | 0.0 | 0.0 | 0.00 | 0.00 | 0.00 | 72 | 1013.7 |
| 20260906060229 | 84 | 7 | 0.0 | 0.0 | 0.00 | 0.00 | 0.00 | 72 | 1013.8 |
| 20260906055725 | 84 | 19 | 0.0 | 0.0 | 0.00 | 0.00 | 0.00 | 72 | 1013.9 |
| 20260906055611 | 84 | 0.0 | 0.0 | 0.00 | 0.00 | 0.00 | 71 | 1014.2 | |
| 20260906055220 | 84 | 328 | 0.0 | 0.0 | 0.00 | 0.00 | 0.00 | 71 | 1014.0 |
| 20260906054715 | 84 | 344 | 0.0 | 0.0 | 0.00 | 0.00 | 0.00 | 70 | 1013.8 |
| 20260906054319 | 84 | 0.0 | 0.0 | 0.00 | 0.00 | 0.00 | 69 | 1014.1 | |
| 20260906054210 | 84 | 17 | 0.0 | 0.0 | 0.00 | 0.00 | 0.00 | 70 | 1013.8 |
| 20260906053707 | 85 | 344 | 0.0 | 0.0 | 0.00 | 0.00 | 0.00 | 69 | 1014.1 |
| 20260906053254 | 85 | 0.0 | 0.0 | 0.00 | 0.00 | 0.00 | 68 | 1014.1 | |
| 20260906053202 | 85 | 4 | 0.0 | 0.0 | 0.00 | 0.00 | 0.00 | 68 | 1013.8 |
| 20260906052657 | 85 | 345 | 0.0 | 0.0 | 0.00 | 0.00 | 0.00 | 68 | 1013.7 |
| 20260906052154 | 85 | 0 | 0.0 | 0.0 | 0.00 | 0.00 | 0.00 | 68 | 1013.7 |
| 20260906051939 | 85 | 0.0 | 0.0 | 0.00 | 0.00 | 0.00 | 68 | 1014.0 | |
| 20260906051650 | 85 | 348 | 0.0 | 0.0 | 0.00 | 0.00 | 0.00 | 68 | 1013.7 |
| 20260906051149 | 85 | 342 | 0.0 | 0.0 | 0.00 | 0.00 | 0.00 | 69 | 1013.7 |
| 20260906050748 | 85 | 0.0 | 0.0 | 0.00 | 0.00 | 0.00 | 71 | 1013.8 | |
| 20260906050645 | 85 | 9 | 0.0 | 0.0 | 0.00 | 0.00 | 0.00 | 71 | 1013.7 |
| 20260906050139 | 85 | 2 | 0.0 | 0.0 | 0.00 | 0.00 | 0.00 | 71 | 1013.6 |
| 20260906045638 | 85 | 5 | 0.0 | 0.0 | 0.00 | 0.00 | 0.00 | 71 | 1013.7 |
| 20260906045559 | 85 | 0.0 | 0.0 | 0.00 | 0.00 | 0.00 | 71 | 1013.9 | |
| 20260906045133 | 85 | 302 | 0.0 | 0.9 | 0.00 | 0.00 | 0.00 | 70 | 1013.9 |
| 20260906044629 | 85 | 355 | 0.0 | 0.0 | 0.00 | 0.00 | 0.00 | 70 | 1013.7 |
| 20260906044349 | 85 | 0.0 | 0.0 | 0.00 | 0.00 | 0.00 | 70 | 1014.0 | |
| 20260906044124 | 85 | 334 | 0.9 | 0.9 | 0.00 | 0.00 | 0.00 | 70 | 1013.7 |
| 20260906043620 | 85 | 349 | 0.0 | 0.0 | 0.00 | 0.00 | 0.00 | 70 | 1013.8 |
| 20260906043224 | 86 | 0.0 | 0.0 | 0.00 | 0.00 | 0.00 | 69 | 1014.2 | |
| 20260906043116 | 86 | 346 | 0.0 | 0.0 | 0.00 | 0.00 | 0.00 | 69 | 1013.9 |
| 20260906042615 | 86 | 0 | 0.0 | 0.0 | 0.00 | 0.00 | 0.00 | 69 | 1013.8 |
| 20260906042109 | 86 | 23 | 0.0 | 0.0 | 0.00 | 0.00 | 0.00 | 69 | 1013.8 |
| 20260906042035 | 86 | 0.0 | 0.0 | 0.00 | 0.00 | 0.00 | 69 | 1014.0 | |
| 20260906041606 | 86 | 355 | 0.0 | 0.0 | 0.00 | 0.00 | 0.00 | 69 | 1013.7 |
| 20260906041101 | 86 | 357 | 0.0 | 0.0 | 0.00 | 0.00 | 0.00 | 69 | 1013.8 |
| 20260906040742 | 86 | 0.0 | 0.0 | 0.00 | 0.00 | 0.00 | 69 | 1013.9 | |
| 20260906040556 | 86 | 353 | 0.0 | 0.0 | 0.00 | 0.00 | 0.00 | 68 | 1013.6 |
| 20260906040051 | 86 | 1 | 0.0 | 0.0 | 0.00 | 0.00 | 0.00 | 69 | 1013.9 |
| 20260906035553 | 86 | 0.0 | 0.0 | 0.00 | 0.00 | 0.00 | 68 | 1014.0 | |
| 20260906035547 | 86 | 348 | 0.0 | 0.0 | 0.00 | 0.00 | 0.00 | 68 | 1013.9 |
| 20260906035042 | 86 | 348 | 0.0 | 0.0 | 0.00 | 0.00 | 0.00 | 68 | 1013.9 |
| 20260906034542 | 86 | 10 | 0.0 | 0.0 | 0.00 | 0.00 | 0.00 | 68 | 1013.6 |
| 20260906034405 | 86 | 0.0 | 0.0 | 0.00 | 0.00 | 0.00 | 67 | 1013.9 | |
| 20260906034037 | 86 | 39 | 0.0 | 0.0 | 0.00 | 0.00 | 0.00 | 67 | 1013.7 |
| 20260906033532 | 86 | 357 | 0.0 | 0.0 | 0.00 | 0.00 | 0.00 | 68 | 1013.7 |
| 20260906033218 | 86 | 0.0 | 0.0 | 0.00 | 0.00 | 0.00 | 68 | 1014.0 | |
| 20260906033027 | 86 | 344 | 0.0 | 0.0 | 0.00 | 0.00 | 0.00 | 68 | 1013.6 |
| 20260906032524 | 86 | 341 | 0.0 | 0.0 | 0.00 | 0.00 | 0.00 | 67 | 1013.8 |
| 20260906032029 | 87 | 291 | 0.0 | 0.9 | 0.00 | 0.00 | 0.00 | 67 | 1014.1 |
| 20260906032024 | 87 | 25 | 0.0 | 0.0 | 0.00 | 0.00 | 0.00 | 67 | 1013.9 |
| 20260906031520 | 87 | 2 | 0.0 | 0.0 | 0.00 | 0.00 | 0.00 | 67 | 1013.8 |
| 20260906031015 | 87 | 348 | 0.0 | 0.0 | 0.00 | 0.00 | 0.00 | 66 | 1013.8 |
| 20260906030758 | 87 | 328 | 0.0 | 0.9 | 0.00 | 0.00 | 0.00 | 66 | 1014.1 |
| 20260906030515 | 87 | 1 | 0.0 | 0.9 | 0.00 | 0.00 | 0.00 | 66 | 1013.9 |
| 20260906030014 | 87 | 342 | 0.0 | 0.9 | 0.00 | 0.00 | 0.00 | 66 | 1014.0 |
| 20260906025552 | 87 | 0.0 | 0.0 | 0.00 | 0.00 | 0.00 | 66 | 1014.2 | |
| 20260906025514 | 87 | 357 | 0.0 | 0.0 | 0.00 | 0.00 | 0.00 | 66 | 1013.8 |
| 20260906025012 | 87 | 238 | 0.9 | 0.9 | 0.00 | 0.00 | 0.00 | 65 | 1013.9 |
| 20260906024508 | 87 | 342 | 0.0 | 0.9 | 0.00 | 0.00 | 0.00 | 65 | 1013.8 |
| 20260906024403 | 87 | 356 | 0.0 | 0.9 | 0.00 | 0.00 | 0.00 | 65 | 1014.0 |
| 20260906024008 | 88 | 19 | 0.0 | 0.9 | 0.00 | 0.00 | 0.00 | 64 | 1013.8 |
| 20260906023504 | 88 | 5 | 0.0 | 0.0 | 0.00 | 0.00 | 0.00 | 64 | 1013.7 |
| 20260906023215 | 87 | 354 | 0.0 | 0.9 | 0.00 | 0.00 | 0.00 | 64 | 1013.8 |
| 20260906022958 | 87 | 1 | 0.0 | 0.9 | 0.00 | 0.00 | 0.00 | 64 | 1013.6 |
| 20260906022448 | 88 | 322 | 0.0 | 0.9 | 0.00 | 0.00 | 0.00 | 63 | 1013.4 |
| 20260906022028 | 88 | 359 | 0.0 | 0.9 | 0.00 | 0.00 | 0.00 | 62 | 1013.9 |
| 20260906021943 | 88 | 346 | 0.9 | 1.7 | 0.00 | 0.00 | 0.00 | 63 | 1013.4 |
| 20260906021438 | 88 | 295 | 0.0 | 0.0 | 0.00 | 0.00 | 0.00 | 62 | 1013.5 |
| 20260906020938 | 88 | 340 | 0.0 | 0.0 | 0.00 | 0.00 | 0.00 | 62 | 1013.4 |
| 20260906020738 | 88 | 0.0 | 0.0 | 0.00 | 0.00 | 0.00 | 61 | 1013.6 | |
| 20260906020432 | 88 | 13 | 0.0 | 0.0 | 0.00 | 0.00 | 0.00 | 61 | 1013.3 |
| 20260906015927 | 89 | 19 | 0.0 | 0.0 | 0.00 | 0.00 | 0.00 | 61 | 1013.2 |
| 20260906015549 | 89 | 1 | 0.9 | 1.7 | 0.00 | 0.00 | 0.00 | 60 | 1013.4 |
| 20260906015426 | 89 | 354 | 0.0 | 0.0 | 0.00 | 0.00 | 0.00 | 60 | 1013.2 |
| 20260906014926 | 89 | 340 | 1.7 | 1.7 | 0.00 | 0.00 | 0.00 | 60 | 1013.2 |
| 20260906014426 | 89 | 326 | 0.0 | 0.0 | 0.00 | 0.00 | 0.00 | 60 | 1013.3 |
| 20260906014357 | 90 | 0.0 | 0.0 | 0.00 | 0.00 | 0.00 | 59 | 1013.4 | |
| 20260906013922 | 90 | 5 | 0.0 | 0.0 | 0.00 | 0.00 | 0.00 | 59 | 1013.0 |
| 20260906013417 | 90 | 312 | 0.0 | 0.0 | 0.00 | 0.00 | 0.00 | 58 | 1013.2 |
| 20260906013230 | 90 | 359 | 0.9 | 1.7 | 0.00 | 0.00 | 0.00 | 58 | 1013.3 |
| 20260906012913 | 90 | 358 | 1.7 | 1.7 | 0.00 | 0.00 | 0.00 | 58 | 1013.0 |
| 20260906012408 | 91 | 57 | 0.0 | 0.9 | 0.00 | 0.00 | 0.00 | 57 | 1013.0 |
| 20260906012043 | 91 | 46 | 0.0 | 0.9 | 0.00 | 0.00 | 0.00 | 56 | 1012.9 |
| 20260906011907 | 91 | 346 | 0.0 | 0.9 | 0.00 | 0.00 | 0.00 | 56 | 1012.6 |
| 20260906011402 | 91 | 61 | 2.6 | 2.6 | 0.00 | 0.00 | 0.00 | 55 | 1012.5 |
| 20260906010858 | 92 | 323 | 0.0 | 0.0 | 0.00 | 0.00 | 0.00 | 54 | 1012.5 |
| 20260906010832 | 92 | 9 | 0.9 | 3.5 | 0.00 | 0.00 | 0.00 | 54 | 1012.7 |
| 20260906010354 | 93 | 342 | 0.0 | 0.0 | 0.00 | 0.00 | 0.00 | 54 | 1012.4 |
| 20260906005849 | 93 | 38 | 0.9 | 0.9 | 0.00 | 0.00 | 0.00 | 53 | 1012.2 |
| 20260906005540 | 94 | 281 | 0.9 | 2.6 | 0.00 | 0.00 | 0.00 | 52 | 1012.6 |
| 20260906005348 | 94 | 334 | 0.9 | 0.9 | 0.00 | 0.00 | 0.00 | 52 | 1012.4 |
| 20260906004847 | 95 | 25 | 0.9 | 0.9 | 0.00 | 0.00 | 0.00 | 50 | 1012.2 |
| 20260906004353 | 95 | 32 | 1.7 | 3.5 | 0.00 | 0.00 | 0.00 | 47 | 1012.4 |
| 20260906004347 | 95 | 51 | 0.0 | 0.0 | 0.00 | 0.00 | 0.00 | 48 | 1012.1 |
| 20260906003842 | 95 | 11 | 0.0 | 0.0 | 0.00 | 0.00 | 0.00 | 46 | 1011.9 |
| 20260906003338 | 96 | 37 | 0.9 | 0.9 | 0.00 | 0.00 | 0.00 | 46 | 1012.2 |
| 20260906003205 | 96 | 338 | 0.9 | 2.6 | 0.00 | 0.00 | 0.00 | 45 | 1012.3 |
| 20260906002833 | 96 | 20 | 0.0 | 0.0 | 0.00 | 0.00 | 0.00 | 45 | 1012.0 |
| 20260906002332 | 96 | 26 | 0.0 | 0.9 | 0.00 | 0.00 | 0.00 | 45 | 1012.0 |
| 20260906002019 | 96 | 12 | 0.0 | 0.9 | 0.00 | 0.00 | 0.00 | 45 | 1012.5 |
| 20260906001828 | 96 | 18 | 0.0 | 0.9 | 0.00 | 0.00 | 0.00 | 45 | 1012.2 |
| 20260906001323 | 96 | 51 | 0.9 | 0.9 | 0.00 | 0.00 | 0.00 | 45 | 1012.4 |
| 20260906000831 | 97 | 250 | 0.0 | 0.9 | 0.00 | 0.00 | 0.00 | 45 | 1012.3 |
| 20260906000819 | 96 | 353 | 0.9 | 1.7 | 0.00 | 0.00 | 0.00 | 45 | 1011.9 |
| 20260906000313 | 97 | 8 | 0.0 | 0.0 | 0.00 | 0.00 | 0.00 | 44 | 1011.9 |
| 20260905235808 | 97 | 29 | 0.0 | 0.9 | 0.00 | 0.00 | 0.00 | 44 | 1011.8 |
| 20260905235537 | 97 | 319 | 0.9 | 0.9 | 0.00 | 0.00 | 0.00 | 44 | 1012.3 |
| 20260905235308 | 97 | 307 | 0.9 | 0.9 | 0.00 | 0.00 | 0.00 | 44 | 1012.0 |
| 20260905234804 | 97 | 26 | 0.9 | 0.9 | 0.00 | 0.00 | 0.00 | 44 | 1011.8 |
| 20260905234412 | 97 | 0.0 | 0.0 | 0.00 | 0.00 | 0.00 | 44 | 1012.2 | |
| 20260905234259 | 97 | 11 | 0.0 | 0.0 | 0.00 | 0.00 | 0.00 | 44 | 1011.8 |
| 20260905233754 | 97 | 202 | 0.0 | 0.0 | 0.00 | 0.00 | 0.00 | 44 | 1011.9 |
| 20260905233254 | 97 | 344 | 0.0 | 0.0 | 0.00 | 0.00 | 0.00 | 44 | 1011.8 |
| 20260905233201 | 97 | 0.0 | 0.0 | 0.00 | 0.00 | 0.00 | 43 | 1012.2 | |
| 20260905232753 | 97 | 13 | 0.0 | 0.0 | 0.00 | 0.00 | 0.00 | 44 | 1011.9 |
| 20260905232249 | 97 | 0 | 0.0 | 0.0 | 0.00 | 0.00 | 0.00 | 43 | 1011.9 |
| 20260905232013 | 97 | 20 | 0.9 | 1.7 | 0.00 | 0.00 | 0.00 | 43 | 1012.3 |
| 20260905231745 | 97 | 356 | 0.9 | 1.7 | 0.00 | 0.00 | 0.00 | 43 | 1011.9 |
| 20260905231240 | 97 | 6 | 0.0 | 0.9 | 0.00 | 0.00 | 0.00 | 42 | 1012.0 |
| 20260905230825 | 97 | 37 | 0.9 | 1.7 | 0.00 | 0.00 | 0.00 | 42 | 1012.2 |
| 20260905230736 | 97 | 3 | 0.0 | 0.9 | 0.00 | 0.00 | 0.00 | 41 | 1012.0 |
| 20260905230234 | 97 | 9 | 0.0 | 0.0 | 0.00 | 0.00 | 0.00 | 42 | 1011.9 |